Regional Weather Roundup
Issued by NWS

Home | Current Version | Previous Version | Text Only | Print | Product List | Glossary Off
Versions: 1 2 3 4 5 6 7 8 9 10 11 12 13 14 15 16 17 18 19 20 21 22 23 24 25 26 27 28 29 30 31 32 33 34 35 36 37 38 39 40 41 42 43 44 45 46 47 48 49 50

000
ASUS45 KBOU 021407
RWRCO

WEATHER ROUNDUP FOR COLORADO
NATIONAL WEATHER SERVICE DENVER/BOULDER CO
800 AM MDT THU OCT 02 2014

NOTE: "FAIR" INDICATES FEW OR NO CLOUDS BELOW 12000 FEET WITH NO
SIGNIFICANT WEATHER AND/OR OBSTRUCTIONS TO VISIBILITY.

COZ001>005-013-030-031-021500-
...NORTHWEST COLORADO...

CITY           SKY/WX    TMP DP  RH WIND       PRES   REMARKS
CRAIG          PTCLDY    30  28  92 CALM      30.30R
HAYDEN         CLOUDY    34  28  80 CALM      30.29R
MEEKER         CLOUDY    33  32  96 SE3       30.32R
MOUNT WERNER   NOT AVBL
STEAMBOAT SPGS CLEAR     33  31  96 CALM      30.29R
WALDEN         PTCLDY    28  25  86 SE3       30.25R
$$

COZ006>008-011-021500-
...WEST CENTRAL VALLEYS...

CITY           SKY/WX    TMP DP  RH WIND       PRES   REMARKS
GRAND JUNCTION CLEAR     37  36  96 E3        30.30R
MONTROSE       CLEAR     39  37  92 SE3       30.32R
EAGLE          PTCLDY    34  34 100 CALM      30.32R
RIFLE          PTCLDY    36  34  92 CALM      30.31R
DELTA          FLURRIES  38  37  94 CALM      30.32R
NUCLA          CLEAR     36  32  87 CALM      30.33R
$$

COZ017>023-064>068-021500-
...SOUTHWEST COLORADO...

CITY           SKY/WX    TMP DP  RH WIND       PRES   REMARKS
DURANGO        CLEAR     36  29  75 E7        30.22R
CORTEZ         CLEAR     41  29  62 N3        30.26R
PAGOSA SPRINGS SUNNY     35  26  67 CALM      30.24R
TELLURIDE      PTCLDY   N/A N/A N/A CALM      30.30R
WOLF CREEK PAS SUNNY     21  10  63 N35G43    30.26S WCI   2
$$

COZ009-010-012-014-032>034-037-058>063-021500-
...CENTRAL COLORADO...

CITY           SKY/WX    TMP DP  RH WIND       PRES   REMARKS
ASPEN          PTCLDY    31  29  92 CALM      30.30R
BUENA VISTA    MOSUNNY   37  20  51 NW10G17   30.24S
COPPER MTN     CLOUDY    23  18  80 W17G28    30.30R WCI   9
BERTHOUD PASS  CLOUDY    14  12  92 N18G32    30.26F WCI  -3
COTTONWOOD PAS MOSUNNY   32  18  55 W14G22    30.26S WCI  22
GUNNISON       CLEAR     30  25  80 N5        30.30R WCI  25
KREMMLING      CLOUDY    36  30  80 W3        30.29R
LEADVILLE      MOSUNNY   24  17  74 N12       30.27R WCI  13
MONARCH PASS     N/A     18  14  86 MISG      30.40R
SALIDA         MOSUNNY   39  24  53 NW7       30.32R
SUNLIGHT       FOG      N/A N/A N/A CALM      30.34R VSB 1/4
WILKERSON PASS NOT AVBL
$$

COZ069>075-021500-
...SAN LUIS VALLEY/SANGRE DE CRISTO MOUNTAINS...

CITY           SKY/WX    TMP DP  RH WIND       PRES   REMARKS
ALAMOSA        FLURRIES  38  23  55 NW13      30.23R
LA VETA PASS   MOSUNNY   30  27  86 NW6       30.25R WCI  24
SAGUACHE       SUNNY     36  25  64 NW21G26   30.25R
$$

COZ035-036-038>040-021500-
...NORTHERN COLORADO FRONT RANGE...

CITY           SKY/WX    TMP DP  RH WIND       PRES   REMARKS
DENVER INTL AP MOSUNNY   43  38  82 SW7       30.15R
DMNS CITY PARK   N/A     41  38  87 S5        30.14F
AURORA         MOSUNNY   39  38  97 S6        30.17R
FRONT RANGE AP MOSUNNY   45  39  81 SW6       30.16R
ERIE MUNI ARPT SUNNY     38  38  98 CALM      30.14S
BOULDER MUN AP SUNNY     41  37  87 CALM      30.13F
CENTENNIAL     MOSUNNY   40  37  89 SW3       30.16R
BROOMFIELD     MOSUNNY   41  37  87 NW6       30.15R
FORT COLLINS   SUNNY     39  37  93 S3        30.14S
LONGMONT       SUNNY     40  38  93 CALM      30.15F
$$

COZ041-046-047-076>085-087-088-021500-
...PIKES PEAK/PALMER DIVIDE AND SOUTHERN FOOTHILLS...

CITY           SKY/WX    TMP DP  RH WIND       PRES   REMARKS
COLO. SPRINGS  MOSUNNY   43  32  65 N12       30.17R
A. F. ACADEMY  SUNNY     37  31  81 N6        30.17R
ELLICOTT       NOT AVBL
FALCON         SUNNY     39  32  75 N8        30.18R
FORT CARSON    SUNNY     43  34  68 W3        30.16R
LIMON          SUNNY     42  39  89 N10       30.13R
MONUMENT HILL  SUNNY     34  32  93 NW6       30.17R WCI  29
TRINIDAD       CLOUDY    44  36  73 W3        30.18R
$$

COZ042>045-048>051-090-091-021500-
...NORTHEAST COLORADO...

CITY           SKY/WX    TMP DP  RH WIND       PRES   REMARKS
GREELEY ARPT   SUNNY     41  34  75 W3        30.14S
AKRON          MOSUNNY   42  40  92 NW9       30.11R
BURLINGTON     SUNNY     45  41  86 NW15      30.09R
WRAY           SUNNY     47  44  88 NW9       30.09R
STERLING       MOSUNNY   45  43  93 NW7       30.09S
HOLYOKE        SUNNY     46  41  81 NW9       30.08R
FORT MORGAN    MOSUNNY   44  38  79 NW9       30.13R
$$

COZ086-089-092>099-021500-
...SOUTHEAST COLORADO...

CITY           SKY/WX    TMP DP  RH WIND       PRES   REMARKS
PUEBLO         MOSUNNY   47  37  68 NE3       30.16R
LA JUNTA       CLOUDY    52  40  63 NW7       30.14R
LAMAR          PTSUNNY   50  42  74 NW10      30.10R
SPRINGFIELD      N/A     48  38  68 NW22      30.09R
$$


USA.gov is the U.S. government's official web portal to all federal, state and local government web resources and services.